Search for airport 
image banner adimage banner ad
image banner ad

LEVITR - Villanueva del Trabuco

Located in , Spain

ICAO - , IATA -

Data provided by Airmate  

General information

Coordinates: N37°3'49" W4°19'49"
Elevation is 2416 feet MSL.
 
Rated:
View ratings: [VIEW]


View others Airports in Málaga

Operational data

Open for public use
Current time UTC:
Current local time:
Weather at : LEMG - Malaga/Costa Del Sol ( 46 km )
METAR: LEMG 291930Z 11004KT CAVOK 21/15 Q1014 NOSIG
TAF: TAF LEMG 291700Z 2918/3018 15006KT CAVOK TX26/3013Z TN17/3005Z BECMG 2921/2923 29006KT BECMG 3007/3009 13008KT
View NOTAMs / SUP AIP / TFR affecting this airport [VIEW]
Communications frequencies: [VIEW]

Runways:

RWY identifierQFULength (ft)Width (ft)SurfaceLDA (ft)
219680DIRT
039680DIRT

Airport contact information

Address: Spain

Satellite view of LEVITR